Location: York
(31.8935°S, 116.7682°E)
Time: 22:51:56
(UTC+08:00)

Envisat - Pass Details

Date: 17 May 2021
Orbit: 764 x 766 km, 98.1° (Epoch: 13 June)

Event Time Altitude Azimuth Distance (km) Brightness Sun altitude
Rises 03:33:06 0° 64° (ENE) 3,229 6.9 -42.8°
Reaches altitude 10° 03:36:57 10° 94° (E) 2,314 6.1 -42.0°
Maximum altitude 03:38:48 12° 115° (ESE) 2,184 5.9 -41.6°
Enters shadow 03:40:27 10° 134° (SE) 2,297 5.9 -41.2°
